Date_and_time,latitude,longitude,wind_speed,RelWindDirFrom,WindDirFrom,air_pressure,air_temperature,relative_humidity,Temp,platform_speed_wrt_ground,air_pressure_at_mean_sea_level,platform_orientation
2019-05-18 00:00,50.630445,-96.9807833333333,17.8,20.3,20,990.41,8.8,60,9.13,0.0,1017.49,270.0
2019-05-18 00:10,50.6304516666667,-96.9807716666667,17.8,19.5,20,990.39,9.0,59,9.23,0.0,1017.46,270.0
2019-05-18 00:20,50.6304533333333,-96.9807683333333,17.2,19.8,18,990.48,9.1,58,9.22,0.0,1017.55,270.0
2019-05-18 00:30,50.6304533333333,-96.9807666666667,16.2,19.1,12,990.60,9.1,60,9.18,0.0,1017.68,270.0
2019-05-18 00:40,50.6304816666667,-96.980785,15.3,17.7,12,990.71,9.1,61,9.09,0.0,1017.78,270.0
2019-05-18 00:50,50.630455,-96.9807816666667,16.2,19.4,8,990.66,9.1,60,9.07,0.0,1017.74,270.0
2019-05-18 01:00,50.6304383333333,-96.98077,17.1,20.3,5,990.65,9.1,59,9.06,0.0,1017.72,90.0
2019-05-18 01:10,50.6304483333333,-96.9807633333333,17.8,20.8,4,990.54,9.0,60,9.02,0.0,1017.62,90.0
2019-05-18 01:20,50.63045,-96.98077,18.3,21.6,3,990.50,8.7,62,9.00,0.0,1017.59,90.0
2019-05-18 01:30,50.6304533333333,-96.980775,19.7,22.9,2,990.49,8.7,58,8.97,0.0,1017.58,90.0
2019-05-18 01:40,50.6304383333333,-96.98078,18.6,22.4,6,990.59,8.4,63,8.97,0.0,1017.67,90.0
2019-05-18 01:50,50.630445,-96.9807716666667,19.0,23.6,4,990.56,8.1,64,8.95,0.0,1017.64,90.0
2019-05-18 02:00,50.63043,-96.9807833333333,16.4,19.8,358,990.63,8.0,64,8.90,0.0,1017.72,360.0
2019-05-18 02:10,50.630445,-96.9807583333333,16.5,20.9,359,990.65,7.9,67,8.86,0.0,1017.74,360.0
2019-05-18 02:20,50.6304466666667,-96.9807483333333,14.0,17.9,356,990.80,7.9,67,8.84,0.0,1017.90,360.0
2019-05-18 02:30,50.6304516666667,-96.9807516666667,12.7,17.5,347,990.80,8.0,56,8.83,0.0,1017.89,360.0
2019-05-18 02:40,50.6304466666667,-96.9807566666667,14.8,20.5,349,990.69,7.8,56,8.82,0.0,1017.78,360.0
2019-05-18 02:50,50.63045,-96.9807583333333,12.7,20.0,347,990.68,7.6,55,8.81,0.0,1017.78,360.0
2019-05-18 03:00,50.6304516666667,-96.9807616666667,12.9,18.6,343,990.58,7.2,55,8.81,0.0,1017.71,54.7
2019-05-18 03:10,50.6304533333333,-96.9807633333333,14.8,20.2,345,990.26,6.9,56,8.84,0.0,1017.40,54.7
2019-05-18 03:20,50.6304533333333,-96.9807633333333,14.6,19.0,347,990.25,6.8,58,8.87,0.0,1017.40,54.7
2019-05-18 03:30,50.63045,-96.980765,14.6,18.5,348,990.12,6.6,60,8.88,0.0,1017.29,54.7
2019-05-18 03:40,50.630485,-96.9807683333333,16.8,22.7,352,989.92,6.5,63,8.88,0.0,1017.10,54.7
2019-05-18 03:50,50.63044,-96.9807483333333,18.7,23.7,354,989.77,6.5,67,8.89,0.0,1016.96,54.7
2019-05-18 04:00,50.6304483333333,-96.98077,19.9,24.3,358,989.80,6.6,72,8.88,0.0,1016.98,38.0
2019-05-18 04:10,50.63045,-96.9807716666667,20.6,26.1,359,990.08,6.7,74,8.87,0.0,1017.27,38.0
2019-05-18 04:20,50.63045,-96.9807733333333,19.5,23.4,2,990.80,6.7,75,8.86,0.0,1018.01,38.0
2019-05-18 04:30,50.6304483333333,-96.9807733333333,18.8,22.7,4,991.08,6.7,76,8.86,0.0,1018.30,38.0
2019-05-18 04:40,50.6304533333333,-96.9807883333333,20.0,23.4,10,990.97,6.8,75,8.86,0.0,1018.19,38.0
2019-05-18 04:50,50.63045,-96.9807716666667,19.7,23.4,9,991.07,6.8,74,8.85,0.0,1018.32,38.0
2019-05-18 05:00,50.6304366666667,-96.98076,19.7,22.2,11,991.08,6.7,74,8.87,0.0,1018.35,57.7
2019-05-18 05:10,50.63044,-96.9807733333333,19.1,21.4,12,991.35,6.7,76,8.88,0.0,1018.63,57.7
2019-05-18 05:20,50.6304383333333,-96.9807683333333,17.7,20.3,14,991.68,6.6,76,8.89,0.0,1018.99,57.7
2019-05-18 05:30,50.63044,-96.98077,17.2,20.7,16,992.04,6.5,76,8.90,0.0,1019.36,57.7
2019-05-18 05:40,50.6304416666667,-96.9807683333333,16.9,19.1,17,992.28,6.5,76,8.89,0.0,1019.62,57.7
2019-05-18 05:50,50.6304433333333,-96.9807683333333,17.2,20.5,19,992.37,6.4,75,8.89,0.0,1019.71,57.7
2019-05-18 06:00,50.6304433333333,-96.9807683333333,17.3,20.6,24,992.52,6.4,73,8.88,0.0,1019.85,360.0
2019-05-18 06:10,50.630445,-96.98076,17.8,20.2,22,992.61,6.4,71,8.86,0.0,1019.95,360.0
2019-05-18 06:20,50.6304466666667,-96.9807616666667,17.6,20.0,25,992.85,6.3,72,8.85,0.0,1020.20,360.0
2019-05-18 06:30,50.63045,-96.9807616666667,18.8,21.2,23,992.72,6.2,72,8.84,0.0,1020.06,360.0
2019-05-18 06:40,50.63045,-96.9807616666667,18.5,22.4,23,992.73,6.2,73,8.82,0.0,1020.07,360.0
2019-05-18 06:50,50.63046,-96.9807816666667,18.9,22.2,23,992.73,6.1,73,8.81,0.0,1020.09,360.0
2019-05-18 07:00,50.6304533333333,-96.980775,19.3,22.1,22,992.72,6.0,73,8.81,0.0,1020.08,311.7
2019-05-18 07:10,50.6304533333333,-96.9807733333333,19.2,22.2,24,992.72,5.9,73,8.80,0.0,1020.09,311.7
2019-05-18 07:20,50.630455,-96.98077,19.5,23.6,29,992.72,5.9,72,8.80,0.0,1020.09,311.7
2019-05-18 07:30,50.6304533333333,-96.9807683333333,19.5,23.1,27,992.69,5.8,73,8.79,0.0,1020.06,311.7
2019-05-18 07:40,50.6304533333333,-96.9807683333333,20.6,23.9,30,992.66,5.7,72,8.79,0.0,1020.05,311.7
2019-05-18 07:50,50.6304516666667,-96.980765,20.4,24.8,32,992.65,5.6,72,8.79,0.0,1020.04,311.7
2019-05-18 08:00,50.6304516666667,-96.9807666666667,20.8,24.2,34,992.68,5.5,71,8.79,0.0,1020.08,360.0
2019-05-18 08:10,50.6304516666667,-96.9807666666667,21.3,26.3,36,992.76,5.4,70,8.78,0.0,1020.17,360.0
2019-05-18 08:20,50.6304516666667,-96.9807666666667,21.5,26.6,38,992.77,5.3,70,8.78,0.0,1020.19,360.0
2019-05-18 08:30,50.6304516666667,-96.9807666666667,20.9,25.2,42,992.89,5.2,71,8.78,0.0,1020.31,360.0
2019-05-18 08:40,50.6304183333333,-96.9807616666667,21.8,25.7,42,992.87,5.1,70,8.81,0.0,1020.31,360.0
2019-05-18 08:50,50.6304533333333,-96.980785,20.7,25.3,41,992.77,5.0,71,8.85,0.0,1020.21,360.0
2019-05-18 09:00,50.6304466666667,-96.98076,20.0,25.1,46,992.69,5.0,71,8.86,0.0,1020.14,12.6
2019-05-18 09:10,50.6304416666667,-96.9807683333333,21.1,26.5,50,992.66,4.9,68,8.88,0.0,1020.11,12.6
2019-05-18 09:20,50.6304416666667,-96.9807683333333,21.4,28.6,48,992.69,4.9,68,8.88,0.0,1020.15,12.6
2019-05-18 09:30,50.6304416666667,-96.9807666666667,19.5,25.7,49,992.91,4.8,70,8.86,0.0,1020.38,12.6
2019-05-18 09:40,50.630445,-96.9807666666667,19.2,22.8,44,992.98,4.7,70,8.87,0.0,1020.46,12.6
2019-05-18 09:50,50.630445,-96.9807666666667,20.5,23.5,41,992.74,4.6,69,8.90,0.0,1020.23,12.6
2019-05-18 10:00,50.630445,-96.9807666666667,20.0,23.7,44,992.75,4.5,70,8.92,0.0,1020.24,165.5
2019-05-18 10:10,50.630445,-96.9807666666667,21.2,25.1,47,992.76,4.5,68,8.92,0.0,1020.26,165.5
2019-05-18 10:20,50.630445,-96.9807666666667,19.8,22.8,47,992.92,4.4,70,8.92,0.0,1020.44,165.5
2019-05-18 10:30,50.630445,-96.9807666666667,20.1,23.5,39,992.87,4.3,71,8.92,0.0,1020.40,165.5
2019-05-18 10:40,50.630445,-96.9807666666667,21.1,25.3,41,992.90,4.1,72,8.92,0.0,1020.43,165.5
2019-05-18 10:50,50.6304533333333,-96.9807716666667,20.8,25.0,42,993.13,4.1,72,8.91,0.0,1020.68,165.5
2019-05-18 11:00,50.63045,-96.9807733333333,22.2,27.1,41,993.14,4.1,71,8.91,0.0,1020.69,270.0
2019-05-18 11:10,50.6304483333333,-96.98077,22.9,26.8,41,993.14,4.1,71,8.91,0.0,1020.70,270.0
2019-05-18 11:20,50.6304483333333,-96.9807683333333,22.6,27.0,39,993.27,4.0,71,8.91,0.0,1020.84,270.0
2019-05-18 11:30,50.63045,-96.9807716666667,22.5,26.8,40,993.34,4.0,71,8.90,0.0,1020.91,270.0
2019-05-18 11:40,50.63045,-96.9807733333333,21.9,27.3,38,993.36,4.1,72,8.88,0.0,1020.94,270.0
2019-05-18 11:50,50.63045,-96.9807733333333,23.4,27.6,40,993.35,4.0,71,8.85,0.0,1020.93,270.0
2019-05-18 12:00,50.63045,-96.9807733333333,24.2,28.5,43,993.36,4.0,70,8.84,0.0,1020.95,305.3
2019-05-18 12:10,50.63045,-96.9807716666667,23.0,28.0,40,993.44,4.1,72,8.84,0.0,1021.02,305.3
2019-05-18 12:20,50.6304533333333,-96.9807733333333,25.6,29.8,39,993.43,4.0,70,8.83,0.0,1021.02,305.3
2019-05-18 12:30,50.6304483333333,-96.98077,23.9,30.0,38,993.61,3.9,70,8.83,0.0,1021.22,305.3
2019-05-18 12:40,50.6304466666667,-96.98077,21.4,24.7,39,993.91,4.0,72,8.82,0.0,1021.53,305.3
2019-05-18 12:50,50.6304516666667,-96.9807633333333,21.4,26.5,41,993.93,4.0,72,8.81,0.0,1021.55,305.3
2019-05-18 13:00,50.6304416666667,-96.980765,21.4,25.0,40,993.95,3.8,72,8.80,0.0,1021.58,0.0
2019-05-18 13:10,50.63044,-96.980765,21.1,24.4,36,993.93,3.8,72,8.78,0.0,1021.57,0.0
2019-05-18 13:20,50.63044,-96.9807633333333,19.6,25.0,37,993.94,3.8,73,8.78,0.0,1021.57,0.0
2019-05-18 13:30,50.63044,-96.9807633333333,20.4,24.0,41,993.89,3.9,70,8.78,0.0,1021.52,0.0
2019-05-18 13:40,50.6304416666667,-96.9807566666667,19.7,23.2,38,993.92,3.9,70,8.77,0.0,1021.55,0.0
2019-05-18 13:50,50.6304433333333,-96.9807666666667,18.7,22.7,36,993.93,3.9,70,8.77,0.0,1021.56,0.0
2019-05-18 14:00,50.6304533333333,-96.9807583333333,18.5,21.8,37,994.07,3.9,69,8.75,0.0,1021.70,90.0
2019-05-18 14:10,50.6304466666667,-96.9807666666667,18.5,21.3,35,994.14,4.0,70,8.74,0.0,1021.77,90.0
2019-05-18 14:20,50.6304466666667,-96.9807683333333,18.0,21.1,30,994.19,4.1,71,8.74,0.0,1021.82,90.0
2019-05-18 14:30,50.6304483333333,-96.98077,17.7,20.4,29,994.30,4.1,69,8.73,0.0,1021.93,90.0
2019-05-18 14:40,50.630445,-96.98077,17.3,20.0,31,994.40,4.2,70,8.73,0.0,1022.03,90.0
2019-05-18 14:50,50.630445,-96.98077,16.0,19.4,28,994.53,4.3,70,8.73,0.0,1022.16,90.0
2019-05-18 15:00,50.6304516666667,-96.9807633333333,17.3,19.6,26,994.47,4.4,68,8.73,0.0,1022.10,90.0
2019-05-18 15:10,50.63045,-96.9807716666667,17.1,20.0,24,994.34,4.6,68,8.73,0.0,1021.95,90.0
2019-05-18 15:20,50.6304466666667,-96.9807683333333,17.1,20.0,20,994.31,4.7,68,8.73,0.0,1021.91,90.0
2019-05-18 15:30,50.6304533333333,-96.9807766666667,17.7,20.2,16,994.25,4.8,68,8.73,0.0,1021.85,90.0
2019-05-18 15:40,50.6304533333333,-96.9807766666667,17.7,20.4,10,994.21,4.8,70,8.73,0.0,1021.80,90.0
2019-05-18 15:50,50.630455,-96.9807783333333,18.0,21.4,12,994.20,4.9,69,8.74,0.0,1021.79,90.0
2019-05-18 16:00,50.630455,-96.9807766666667,18.1,21.1,10,994.25,5.1,69,8.74,0.0,1021.83,345.5
2019-05-18 16:10,50.6304533333333,-96.9807766666667,19.7,23.4,12,994.11,5.2,69,8.74,0.0,1021.68,345.5
2019-05-18 16:20,50.6304516666667,-96.9807766666667,19.8,22.8,13,994.03,5.3,67,8.74,0.0,1021.59,345.5
2019-05-18 16:30,50.63045,-96.980775,19.2,22.0,13,994.08,5.4,66,8.74,0.0,1021.63,345.5
2019-05-18 16:40,50.63045,-96.9807733333333,19.0,21.7,10,994.07,5.4,65,8.73,0.0,1021.61,345.5
2019-05-18 16:50,50.6304366666667,-96.980755,18.6,21.7,8,994.01,5.5,66,8.73,0.0,1021.54,345.5
2019-05-18 17:00,50.6304433333333,-96.9807666666667,18.8,21.8,7,993.94,5.6,67,8.73,0.0,1021.46,194.5
2019-05-18 17:10,50.6304433333333,-96.9807666666667,18.9,21.2,5,993.77,5.7,65,8.73,0.0,1021.27,194.5
2019-05-18 17:20,50.630445,-96.98077,19.8,23.4,7,993.62,5.8,62,8.71,0.0,1021.11,194.5
2019-05-18 17:30,50.630445,-96.98077,18.9,22.0,5,993.56,5.9,62,8.70,0.0,1021.04,194.5
2019-05-18 17:40,50.6304383333333,-96.9807466666667,19.6,22.7,6,993.45,6.1,61,8.69,0.0,1020.90,194.5
2019-05-18 17:50,50.6304433333333,-96.9807666666667,19.2,21.7,6,993.37,6.3,60,8.70,0.0,1020.81,194.5
2019-05-18 18:00,50.6304416666667,-96.9807633333333,18.5,22.1,7,993.37,6.5,62,8.71,0.0,1020.79,360.0
2019-05-18 18:10,50.630475,-96.980775,17.6,21.2,7,993.50,6.6,62,8.73,0.0,1020.91,360.0
2019-05-18 18:20,50.63045,-96.980765,17.4,20.5,8,993.57,6.9,61,8.74,0.0,1020.97,360.0
2019-05-18 18:30,50.6304483333333,-96.9807633333333,16.3,19.5,4,993.51,6.9,61,8.76,0.0,1020.90,360.0
2019-05-18 18:40,50.630445,-96.9807633333333,15.0,18.2,4,993.47,7.1,61,8.78,0.0,1020.85,360.0
2019-05-18 18:50,50.630445,-96.980765,16.0,19.6,3,993.36,7.2,60,8.80,0.0,1020.73,360.0
2019-05-18 19:00,50.6304466666667,-96.980765,15.5,19.2,4,993.36,7.4,59,8.83,0.0,1020.72,131.7
2019-05-18 19:10,50.6304466666667,-96.9807633333333,15.8,19.5,1,993.28,7.6,58,8.85,0.0,1020.62,131.7
2019-05-18 19:20,50.6304466666667,-96.9807633333333,14.9,18.5,359,993.39,7.8,57,8.88,0.0,1020.72,131.7
2019-05-18 19:30,50.6304466666667,-96.9807633333333,15.4,18.7,0,993.33,8.0,56,8.90,0.0,1020.63,131.7
2019-05-18 19:40,50.6304466666667,-96.9807616666667,15.9,19.3,360,993.15,8.2,55,8.92,0.0,1020.43,131.7
2019-05-18 19:50,50.6304466666667,-96.9807633333333,15.4,19.7,359,993.09,8.3,55,8.93,0.0,1020.35,131.7
2019-05-18 20:00,50.63045,-96.9807766666667,16.0,20.1,358,993.01,8.4,54,8.95,0.0,1020.26,360.0
2019-05-18 20:10,50.6304466666667,-96.980765,14.7,18.7,0,993.07,8.5,56,8.97,0.0,1020.30,360.0
2019-05-18 20:20,50.630445,-96.980765,14.5,18.2,5,993.13,8.5,57,8.97,0.0,1020.37,360.0
2019-05-18 20:30,50.630445,-96.98077,16.2,18.9,6,993.13,8.5,55,8.99,0.0,1020.35,360.0
2019-05-18 20:40,50.630445,-96.9807666666667,13.8,17.8,3,993.11,8.7,57,9.00,0.0,1020.32,360.0
2019-05-18 20:50,50.630445,-96.9807616666667,14.4,18.3,3,993.14,8.8,56,9.01,0.0,1020.33,360.0
2019-05-18 21:00,50.6304516666667,-96.9807733333333,14.9,17.0,4,993.07,9.1,53,9.03,0.0,1020.23,360.0
2019-05-18 21:10,50.630445,-96.980765,15.8,20.0,360,992.78,9.2,54,9.06,0.0,1019.93,360.0
2019-05-18 21:20,50.630445,-96.9807666666667,16.5,20.0,3,992.72,9.3,55,9.10,0.0,1019.85,360.0
2019-05-18 21:30,50.6304466666667,-96.980765,15.9,19.5,3,992.55,9.3,54,9.12,0.0,1019.66,360.0
2019-05-18 21:40,50.6304483333333,-96.980765,16.3,20.9,4,992.48,9.3,56,9.14,0.0,1019.59,360.0
2019-05-18 21:50,50.6304483333333,-96.9807666666667,17.1,21.4,1,992.35,9.4,55,9.16,0.0,1019.45,360.0
2019-05-18 22:00,50.6304483333333,-96.9807683333333,17.5,22.2,4,992.20,9.3,56,9.17,0.0,1019.29,0.0
2019-05-18 22:10,50.6304683333333,-96.98078,18.9,21.9,5,992.00,9.3,55,9.18,0.0,1019.08,0.0
2019-05-18 22:20,50.63045,-96.980775,17.9,20.2,8,991.95,9.3,57,9.17,0.0,1019.03,0.0
2019-05-18 22:30,50.6304483333333,-96.98077,18.6,21.0,7,991.89,9.3,56,9.17,0.0,1018.97,0.0
2019-05-18 22:40,50.63045,-96.9807683333333,17.8,20.3,8,991.95,9.3,57,9.15,0.0,1019.02,0.0
2019-05-18 22:50,50.6304183333333,-96.980775,18.0,21.1,8,991.88,9.3,57,9.15,0.0,1018.94,0.0
2019-05-18 23:00,50.630445,-96.9807783333333,17.2,20.4,9,992.03,9.2,58,9.19,0.0,1019.09,192.6
2019-05-18 23:10,50.6304516666667,-96.9807766666667,16.4,19.3,8,992.17,9.2,59,9.19,0.0,1019.23,192.6
2019-05-18 23:20,50.63045,-96.980775,15.7,18.3,9,992.35,9.1,60,9.19,0.0,1019.42,192.6
2019-05-18 23:30,50.63045,-96.9807766666667,15.9,18.2,9,992.43,9.1,60,9.19,0.0,1019.51,192.6
